Погода Стенде

Погода Стенде : погода сейчас, прогноз погоды и архив. Всё, что Вы хотите узнать о погоде Стенде!

Поиск расширенной информации на нашем сайте:

Другие новости

Новости СМИ2

Главная страница сайта

Новости сайта

03.07.2017

Напоминаем, что на нашем специализированном сайте Метеоцентр.Азия вы можете получить высокодетализированные автоматические прогнозы погоды по пунктам России, СНГ и мира в авиационном формате (включающие направление и скорость ветра, видимость, явления погоды, количество и форму облачности, нижнюю и верхнюю границу облачности).


Погода Стенде - сегодня

Время (UTC), дата Ветер
(°,м/с) 
Видим.   Явления Облачность Т
(°С)
Тd
(°С)
f(%) Тe
(°С)
Pmin
(гПа)
dP
(гПа)
Po
(мм)
O2
(г/м3)
Тmin Tmax R s Состояние
почвы
09 08.02.18 140 (ЮВ) 4-5  н/о    н/о 
-9.8 -12.5 81 -14  1021.3  0.4  758  318           
15 08.02.18 140 (ЮВ) 4-5  н/о    н/о 
-7 -8.8 87 -11  1020.6  -0.4  758  314           
18 08.02.18 140 (ЮВ) 3-4  н/о    н/о 
-6.3 -7.8 89 -9  1020.9  0.2  758  313           
21 08.02.18 150 (ЮВ) 3-4  н/о    н/о 
-5.7 -7.1 90 -8  1021.2  0.3  758  313           
00 09.02.18 170 (Ю) 2-3  н/о    н/о 
-5.2 -6.7 89 -7  1021.4  0.2  758  312           
03 09.02.18 140 (ЮВ) 2-2  н/о    н/о 
-5.2 -6.4 91 -7  1021.6  0.2  758  312           
06 09.02.18 130 (ЮВ) 3-4  н/о    н/о 
-5.6 -6 97 -8  1021.9  0.3  759  313           
09 09.02.18 170 (Ю) 1-2  н/о    н/о 
-4.6 -5 97 -4  1022.4  0.5  759  312           
15 09.02.18 140 (ЮВ) 2-4  н/о    н/о 
-4.5 -5 96 -6  1022.5  0.3  759  312           
18 09.02.18 090 (В) 2-4  н/о    н/о 
-4 -4.5 96 -5  1022.6  0.1  759  311           
09 22.02.18 тихо () -1  н/о    н/о 
-7.9 -11.3 76 -8  1031.9  0.5  766  319           
21 23.04.18 150 (ЮВ) 4-6  н/о    н/о 
+9.1 +7.4 89 +8  1005.6  -2  747  290           
06 25.04.18 250 (З) 3-6  н/о    н/о 
+6.2 +5.4 95 +5  1001.6  0.5  744  292           
18 29.04.18 090 (В) 1-1  н/о    н/о 
+12.5 +7.6 72 +14  1011.4  1.3  751  288           
21 06.05.18 310 (СЗ) 2-2  н/о    н/о 
+14.3 +8.4 68 +15  1025.2  0.1  762  290           
15 21.05.18 070 (В) 3-5  н/о    н/о 
+21.5 +2.5 29 +22  1025.6  -1.7  762  284           
15 06.06.18 300 (СЗ) 4-7  н/о    н/о 
+14.1 -1.4 34 +14  1019.6  -0.2  757  290           
15 14.06.18 100 (В) 3-4  н/о    н/о 
+22.8 +8.4 40 +23  1011.4  -0.6  752  278           
12 04.07.18 310 (СЗ) 2-5  н/о    н/о 
+18.4 +14.1 76 +26  1008.6  -0.1  749  280           
00 24.07.18 030 (СВ) 1-2  н/о    н/о 
+13.2 +12.6 96 +19  1013.7  753  287           
15 05.09.18 050 (СВ) 4-6  н/о    н/о 
+18.3 +14.5 79 +27  1018.6  0.1  757  283           
21 06.09.18 350 (С) 1-1  н/о    н/о 
+16.7 +16.5 99 +29  1015.7  -0.6  755  283           
15 07.09.18 150 (ЮВ) 4-6  н/о    н/о 
+24.9 +10.1 39 +26  1014.4  -0.3  754  277           
15 10.09.18 250 (З) 2-3  н/о    н/о 
+21.3 +9.5 47 +22  1020.4  -0.7  758  282           
00 14.09.18 200 (Ю) 4-6  н/о    н/о 
-2    -0.3  762  307           
Время (UTC), дата Ветер
(°,м/с) 
Видим.   Явления Облачность Т
(°С)
Тd
(°С)
f(%) Тe
(°С)
Pmin
(гПа)
dP
(гПа)
Po
(мм)
O2
(г/м3)
Тmin Tmax R s Состояние
почвы

Для получения пояснительной информации подведите курсор к названию столбца.

ПОГОДА Стенде - архив

Всё, что Вы хотите узнать о погоде Стенде - удобно и подробно!

Выберите нужную дату (начиная с 1 января 2015* года) и нажмите кнопку "Найти".
Будут отображены архивные сводки погоды по пункту Стенде, начиная с указанной даты.


Отображать данные в формате CSV (для использования в таблицах Excel)


Внимание! Наш архив погоды предназначен исключительно для личного некоммерческого использования в познавательных целях. Если Вам необходимы официальные справки о состоянии погоды (для производственных, юридических, коммерческих и т.п. целей), обращайтесь в органы Росгидромета.

*Примечание: данная дата относится к архиву по метеостанциям СССР (Россия, СНГ, Балтия).
Архив по метеостанциям Зарубежной Европы и Азии (кроме Китая) хранится 10 дней, по другим регионам земного шара (Китай, Африка, Америка, Австралия, Океания) - 1 день.

Стенде - район местоположения метеостанции


Название, широта, долгота, высота метеостанции:
Стенде 57.2°ш. 22.6°д. 79 м над ур. моря [Латвия]

Дополнительная информация

В oтличие oт бoльшинства пoгoдных сайтoв мы публикуем пoдрoбную метеoинфoрмацию в детальнoм прoфессиoнальнoм фoрмате.

Характеристики температуры и влажнoсти вoздуха измеряются на высoте 2 м в тени вдали oт зданий и деревьев.
Скoрoсть ветра измеряется на высoте 10 м (на урoвне рoста челoвека скoрoсть ветра ниже в 1.5-2 раза). Если метеoстанция нахoдится в гoрoде или в лесу, тo скoрoсть ветра занижена на 2-4 м/с пo сравнению с oткрытым местoм. Скoрoсть ветра над акватoриями крупных рек и oзёр, а также на вершинах хoлмoв на 2-5 м/с выше, чем в oбычных услoвиях.
Атмoсфернoе давление в разных тoчках местнoсти мoжет значительнo oтличаться oт давления на метеoстанции, в зависимoсти oт услoвий рельефа (при пoдъёме на 10 м давление пoнижается примернo на 1 мм рт.ст.).